TimeEST,TemperatureF,Dew PointF,Humidity,Sea Level PressureIn,VisibilityMPH,Wind Direction,Wind SpeedMPH,Gust SpeedMPH,PrecipitationIn,Events,Conditions,WindDirDegrees,DateUTC
12:15 AM,33.8,28.4,81,30.03,7.0,NNW,3.5,-,N/A,,Overcast,330,2014-02-02 05:15:00
12:35 AM,35.6,28.4,75,30.02,6.0,Calm,Calm,-,N/A,,Overcast,0,2014-02-02 05:35:00
12:55 AM,35.6,30.2,81,30.00,8.0,Calm,Calm,-,N/A,,Overcast,0,2014-02-02 05:55:00
1:15 AM,35.6,30.2,81,30.00,8.0,Calm,Calm,-,N/A,,Overcast,0,2014-02-02 06:15:00
1:35 AM,35.6,30.2,81,29.99,8.0,Calm,Calm,-,N/A,,Overcast,0,2014-02-02 06:35:00
1:55 AM,35.6,30.2,81,29.98,7.0,Calm,Calm,-,N/A,,Overcast,0,2014-02-02 06:55:00
2:15 AM,35.6,30.2,81,29.96,7.0,Calm,Calm,-,N/A,,Overcast,0,2014-02-02 07:15:00
2:35 AM,35.6,30.2,81,29.95,6.0,Calm,Calm,-,N/A,,Overcast,0,2014-02-02 07:35:00
2:55 AM,35.6,32.0,87,29.94,4.0,Calm,Calm,-,N/A,,Overcast,0,2014-02-02 07:55:00
3:15 AM,37.4,33.8,87,29.93,0.8,WNW,3.5,-,N/A,,Overcast,290,2014-02-02 08:15:00
3:35 AM,37.4,33.8,87,29.93,0.2,Calm,Calm,-,N/A,,Overcast,0,2014-02-02 08:35:00
3:55 AM,37.4,35.6,93,29.92,0.2,West,3.5,-,N/A,,Overcast,280,2014-02-02 08:55:00
4:15 AM,37.4,33.8,87,29.92,0.2,West,4.6,-,N/A,,Overcast,270,2014-02-02 09:15:00
4:35 AM,37.4,33.8,87,29.92,0.2,West,6.9,-,N/A,,Overcast,260,2014-02-02 09:35:00
4:55 AM,37.4,33.8,87,29.92,0.2,West,5.8,-,N/A,,Overcast,260,2014-02-02 09:55:00
5:15 AM,37.4,33.8,87,29.91,0.2,WSW,3.5,-,N/A,,Overcast,250,2014-02-02 10:15:00
5:35 AM,35.6,32.0,87,29.90,0.2,West,3.5,-,N/A,,Overcast,260,2014-02-02 10:35:00
5:45 AM,35.6,32.0,87,29.90,0.2,Calm,Calm,-,N/A,Fog,Fog,0,2014-02-02 10:45:00
6:50 AM,35.6,30.2,81,29.89,0.2,Calm,Calm,-,N/A,Fog,Fog,0,2014-02-02 11:50:00
7:48 AM,33.8,30.2,87,29.91,0.2,Calm,Calm,-,N/A,Fog,Fog,0,2014-02-02 12:48:00
8:50 AM,35.6,30.2,81,29.92,1.0,Calm,Calm,-,N/A,,Scattered Clouds,0,2014-02-02 13:50:00
9:10 AM,35.6,30.2,81,29.92,3.0,Calm,Calm,-,N/A,,Scattered Clouds,0,2014-02-02 14:10:00
9:30 AM,37.4,33.8,87,29.92,7.0,Calm,Calm,-,N/A,,Clear,0,2014-02-02 14:30:00
9:50 AM,37.4,33.8,87,29.92,10.0,Calm,Calm,-,N/A,,Clear,0,2014-02-02 14:50:00
10:47 AM,44.6,35.6,71,29.94,10.0,WNW,6.9,-,N/A,,Clear,300,2014-02-02 15:47:00
11:50 AM,48.2,35.6,62,29.93,10.0,West,5.8,-,N/A,,Mostly Cloudy,280,2014-02-02 16:50:00
12:50 PM,48.2,33.8,58,29.92,10.0,WNW,5.8,-,N/A,,Overcast,300,2014-02-02 17:50:00
1:50 PM,48.2,33.8,58,29.92,10.0,NW,5.8,-,N/A,,Overcast,320,2014-02-02 18:50:00
2:50 PM,46.4,35.6,66,29.92,8.0,Calm,Calm,-,N/A,,Mostly Cloudy,0,2014-02-02 19:50:00
3:50 PM,44.6,35.6,71,29.93,8.0,WNW,5.8,-,N/A,,Overcast,290,2014-02-02 20:50:00
4:50 PM,44.6,35.6,71,29.95,8.0,WNW,5.8,-,N/A,,Overcast,290,2014-02-02 21:50:00
5:50 PM,42.8,35.6,76,29.97,8.0,NNW,5.8,-,N/A,,Overcast,340,2014-02-02 22:50:00
6:50 PM,42.8,33.8,70,30.01,10.0,NNW,8.1,-,N/A,,Overcast,340,2014-02-02 23:50:00
7:50 PM,39.2,30.2,70,30.04,10.0,NE,5.8,-,N/A,,Overcast,40,2014-02-03 00:50:00
8:50 PM,37.4,30.2,75,30.05,10.0,NNE,6.9,-,N/A,,Overcast,20,2014-02-03 01:50:00
9:15 PM,37.4,30.2,75,30.05,10.0,North,6.9,-,N/A,,Overcast,360,2014-02-03 02:15:00
9:35 PM,37.4,30.2,75,30.05,10.0,North,5.8,-,N/A,,Overcast,10,2014-02-03 02:35:00
9:55 PM,37.4,30.2,75,30.06,10.0,North,8.1,-,N/A,,Overcast,360,2014-02-03 02:55:00
10:15 PM,37.4,28.4,70,30.07,10.0,North,8.1,-,N/A,,Mostly Cloudy,360,2014-02-03 03:15:00
10:35 PM,37.4,28.4,70,30.07,10.0,North,8.1,-,N/A,,Overcast,360,2014-02-03 03:35:00
10:55 PM,35.6,28.4,75,30.07,10.0,NNE,6.9,-,N/A,,Overcast,20,2014-02-03 03:55:00
11:15 PM,35.6,26.6,70,30.08,10.0,North,6.9,-,N/A,,Overcast,350,2014-02-03 04:15:00
11:35 PM,35.6,26.6,70,30.08,10.0,NNW,10.4,-,N/A,,Mostly Cloudy,340,2014-02-03 04:35:00
11:55 PM,35.6,26.6,70,30.08,10.0,North,9.2,-,N/A,,Mostly Cloudy,360,2014-02-03 04:55:00